STARLINK-11309, 61202

Orbit data source: Space-Track

STARLINK-11309, 61202 is a payload satellite owned by SpaceX/Seattle (US) in LEO that was launched on Fri, 20 Sep 2024 UTC via an FALCON 9 launch vehicle from the Air Force Western Test Range (AFWTR). Payload-class satellites include a variety of spacecraft equipped with specific instruments for various scientific and technological missions. These include communications satellites like Starlink; space stations such as the ISS; scientific satellites like the Hubble; Earth observation satellites from companies like Planet Labs, Umbra, and HawkEye 360; GPS; miniature CubeSats for education and research; and military/defense satellites.

Loading next visibility...
Identifier
61202, 2024-171C
Orbit
LEO
Country
Flag of USUS
Related business
Manufacturer
SpaceX/Seattle
Mission
Operational Commercial Communications
Bus & Motor
STARLINK V2MD, Unknown motor
Mass
960 kg wet, ~910 kg dry
Launch date (UTC)
2024-09-20 (2 years ago)
Launch vehicle
FALCON 9
Launch site
Air Force Western Test Range (AFWTR)
Object type
Payload
Rocket body
Debris
Shape & HBR
Box + 2 Pan, 18.1 m
Radar Cross Section
36.964 m², Large (>1 m²)

Expand to show TLE details & history
Last TLE update: 19 hours ago

TLE from 19 hours ago
0 STARLINK-11309
1 61202U 24171C   26171.04421546 -.00000052  00000-0  44247-5 0  9993
2 61202  53.1591  31.7664 0000921  79.3977 280.7144 15.69710018100474
Epoch: 2026-06-20T01:03Z
TLE epoch observation values (Epoch: 2026-06-20T01:03:40.215Z)
Latitude
-0.00008°
Longitude
107.58428°
Altitude
360.526 km
Speed
7.694 km/s
True Right ascension
02h 07m 03s
True Declination
0° 00' 00"
Sunlit
Object was in daylight at epoch
Visualization orbit readout
Latitude
Unknown
Longitude
Unknown
Altitude
Unknown
Speed
Unknown
Apparent Right ascension
Unknown
Apparent Declination
Unknown
Sunlit
N/A
Visualization observer readout
Local Sidereal Time
07:13:32
Azimuth
Unknown
Elevation
Unknown
Doppler factor
Unknown
Orbital elements
Apogee altitude
360.608 km
Perigee altitude
359.367 km
Semi-major axis
6,738.125 km
Eccentricity
0.00009
Inclination
53.1591°
RAAN
31.7664°
Arg. of periapsis
79.3977°
True anomaly
280.70403°
Mean anomaly
280.7144°
Eccentric anomaly
280.70921°
Mean motion
3.92405 °/min
Orbital period
91.74 mins
BSTAR
0.0000044247
Loading maneuver chart data...
Computing Atmospheric mass density...
Loading historical data...
Loading historical data...
Loading historical data...
Loading historical data...
Loading historical data...
Loading historical data...
Loading historical data...

Documentation

Showing up to 5 results
|